Address 0xa8e6c90ed22d6be9991cd3185aae8f06ce686b0a

Txn Hash Method
Block
From
To
Value [Txn Fee]
0xe1985e8d348d34f3eefc2319fb2ac55f777775fc70e24058fe1a46cc547a300cSwap Tokens For ...166728882022-06-29 13:30:181 day 20 hrs ago0xa8e6c90ed22d6be9991cd3185aae8f06ce686b0aOUT Trader Joe: Router0 AVAX0.00258002525
0xa13d60726218188237cb0b48dfc0f1259e1047d22d4c63bd6ea4c9b550cdf05dSwap Exact Token...166727082022-06-29 13:24:181 day 20 hrs ago0xa8e6c90ed22d6be9991cd3185aae8f06ce686b0aOUT Trader Joe: Router0 AVAX0.00274177525
0xfb131e2ef72c7ab35d0cabfd6655da35496217723f66f2068d2a817cff65d1afSwap Tokens For ...166712162022-06-29 12:34:251 day 21 hrs ago0xa8e6c90ed22d6be9991cd3185aae8f06ce686b0aOUT Trader Joe: Router0 AVAX0.00258002525
0x4d841092f4eadf02bcf93de9cefccb8635106d308b083543589bfd57b47817beSwap Exact Token...166672962022-06-29 10:23:391 day 23 hrs ago0xa8e6c90ed22d6be9991cd3185aae8f06ce686b0aOUT Trader Joe: Router0 AVAX0.00274207525
0xeef33db629e671e3d9a5b289bbaecf5cd8bc37ff41fb8ff0fdc5916a3709f204Swap Tokens For ...166668572022-06-29 10:09:011 day 23 hrs ago0xa8e6c90ed22d6be9991cd3185aae8f06ce686b0aOUT Trader Joe: Router0 AVAX0.00258002525
0x9aa1b11d1700f8a23a01268c7759b780af355155a33f34da7739e787963541b0Swap Tokens For ...166655802022-06-29 9:26:262 days 40 mins ago0xa8e6c90ed22d6be9991cd3185aae8f06ce686b0aOUT Trader Joe: Router0 AVAX0.00258002525
0xfd679be87265328726cade86c4f3f347ded400199853609183a4117b7aab1a12Swap Exact Token...166641452022-06-29 8:38:162 days 1 hr ago0xa8e6c90ed22d6be9991cd3185aae8f06ce686b0aOUT Trader Joe: Router0 AVAX0.00274177525
0xef9fe0adedda0f1b49d206f3cae27773e1748535b5be481523c06c38da2e0dfaSwap Exact Token...166597492022-06-29 6:12:262 days 3 hrs ago0xa8e6c90ed22d6be9991cd3185aae8f06ce686b0aOUT Trader Joe: Router0 AVAX0.00274177525
0xd201059c0212f2ba335d347c23444de31511dcd752c466f06e804cb2b34346baSwap Tokens For ...166580942022-06-29 5:17:472 days 4 hrs ago0xa8e6c90ed22d6be9991cd3185aae8f06ce686b0aOUT Trader Joe: Router0 AVAX0.00258002525
0xb57da590a25389d060335eceb879131254f38d86df42e3bfc4bf517ba8619d1fSwap Exact Token...166570962022-06-29 4:44:232 days 5 hrs ago0xa8e6c90ed22d6be9991cd3185aae8f06ce686b0aOUT Trader Joe: Router0 AVAX0.00274177525
0xafc531081b491bacc7d949b3156df470a172e902e504a3cc20dd6f67f398f739Swap Tokens For ...166566372022-06-29 4:28:552 days 5 hrs ago0xa8e6c90ed22d6be9991cd3185aae8f06ce686b0aOUT Trader Joe: Router0 AVAX0.00258002525
0x9fa5d213f12c216fcf5236dd27fac3a1b2c2472927ea3165a623f5f699c50605Swap Tokens For ...166565882022-06-29 4:27:132 days 5 hrs ago0xa8e6c90ed22d6be9991cd3185aae8f06ce686b0aOUT Trader Joe: Router0 AVAX0.00258002525
0x186bbc74576158897bb4ba0549cbb5cd0154b74ac2dd5043bc1d752f306da1daSwap Tokens For ...166538552022-06-29 2:55:452 days 7 hrs ago0xa8e6c90ed22d6be9991cd3185aae8f06ce686b0aOUT Trader Joe: Router0 AVAX0.00258002525
0x0f23fac642572e4d752b2f562f0a91165324ec4115519e645c863779a34f56a4Swap Exact Token...166523662022-06-29 2:05:562 days 8 hrs ago0xa8e6c90ed22d6be9991cd3185aae8f06ce686b0aOUT Trader Joe: Router0 AVAX0.00274177525
0x8725cbcd03062043448f0e370407aff80c2917e91d85494fd8f8b43a8cd35598Swap Tokens For ...166510472022-06-29 1:21:402 days 8 hrs ago0xa8e6c90ed22d6be9991cd3185aae8f06ce686b0aOUT Trader Joe: Router0 AVAX0.00258002525
0xefea19db6b9fa20748df4ba46e6daa47041e0aa6cd3f6b83eb08dc4e34d7c667Swap Exact Token...166503532022-06-29 0:58:272 days 9 hrs ago0xa8e6c90ed22d6be9991cd3185aae8f06ce686b0aOUT Trader Joe: Router0 AVAX0.00274177525
0x81bea648301f2ce341e29e7aa3bcf959620d9d5c3eb30aa8b03daf29068e658dSwap Exact Token...166492382022-06-29 0:21:032 days 9 hrs ago0xa8e6c90ed22d6be9991cd3185aae8f06ce686b0aOUT Trader Joe: Router0 AVAX0.00274177525
0x95cdc41c4298a6b3672803f6da0650665b2d3349566a18c820b37664c23b6234Swap Exact Token...166482972022-06-28 23:49:512 days 10 hrs ago0xa8e6c90ed22d6be9991cd3185aae8f06ce686b0aOUT Trader Joe: Router0 AVAX0.00274177525
0x06e75bebbf41abf13ac6087c9fb8c47461437d18619c9d1bd35fbe2f34962323Swap Tokens For ...166471692022-06-28 23:12:122 days 10 hrs ago0xa8e6c90ed22d6be9991cd3185aae8f06ce686b0aOUT Trader Joe: Router0 AVAX0.00258002525
0xcccf36f0eb981222846e7fa0e77ebea529a3478a1c2b2bf3b5a0bbc6bb384eaaSwap Tokens For ...166462672022-06-28 22:42:042 days 11 hrs ago0xa8e6c90ed22d6be9991cd3185aae8f06ce686b0aOUT Trader Joe: Router0 AVAX0.00258002525
0x292199ec64a8f0147384be6c49c7b419af9d0992a971f08c6700e7a5341b6140Swap Tokens For ...166453832022-06-28 22:12:552 days 11 hrs ago0xa8e6c90ed22d6be9991cd3185aae8f06ce686b0aOUT Trader Joe: Router0 AVAX0.00258002525
0x51451091ff7d985e07d4f108d071c7f22f846d218c80b09c1e5d32196307def6Swap Exact Token...166426092022-06-28 20:40:272 days 13 hrs ago0xa8e6c90ed22d6be9991cd3185aae8f06ce686b0aOUT Trader Joe: Router0 AVAX0.00274177525
0xba7ec93850bbe3cd019eb38774f3842f30d0ab2ffeec992c66c556e6c549a5ccSwap Tokens For ...166414732022-06-28 20:02:312 days 14 hrs ago0xa8e6c90ed22d6be9991cd3185aae8f06ce686b0aOUT Trader Joe: Router0 AVAX0.00258002525
0x126df65c34e698c9d614f1b0e4f1897f2cbb40351febb223ecdaa2e9b9918cf4Swap Tokens For ...166403592022-06-28 19:25:192 days 14 hrs ago0xa8e6c90ed22d6be9991cd3185aae8f06ce686b0aOUT Trader Joe: Router0 AVAX0.00258002525
0x348d14dccb885dd27997960c23d2b6bb9cf6c8fcc38e8320f5c3ccf32a4746c3Swap Exact Token...166354412022-06-28 16:41:182 days 17 hrs ago0xa8e6c90ed22d6be9991cd3185aae8f06ce686b0aOUT Trader Joe: Router0 AVAX0.00274177525
[ Download CSV Export 
Latest 7 internal transactions
Parent Txn Hash Block From To Value
0x4648ac7a0f8b12ff3ea6e674d21de503e7478056f70a4d3e882e3d2eaf51a390136222632022-04-19 11:53:2272 days 22 hrs ago Wrapped AVAX0xa8e6c90ed22d6be9991cd3185aae8f06ce686b0a1.94 AVAX
0x50793546d7d328cfc8c03c0bf435c089e22c4474c0af4a3099ca68ad99d7b962124786272022-03-23 15:22:2299 days 18 hrs ago Wrapped AVAX0xa8e6c90ed22d6be9991cd3185aae8f06ce686b0a0.71 AVAX
0x6e215b3f2dc55cfb47944f252ab7cfec41cbd1349d62c4acdb63168c7e3483cf120949182022-03-14 10:21:06108 days 23 hrs ago Wrapped AVAX0xa8e6c90ed22d6be9991cd3185aae8f06ce686b0a0.79 AVAX
0x9c5e44a2cbfbe906e2adf12bbc881900c451851761e054d5267410dbc6674843111307112022-02-19 17:04:19131 days 17 hrs ago Wrapped AVAX0xa8e6c90ed22d6be9991cd3185aae8f06ce686b0a2 AVAX
0xbc4d53fa2229abb0f5d28c41aa6128024534b97504e5c928fadce807d2508085103029032022-01-31 14:27:19150 days 19 hrs ago Wrapped AVAX0xa8e6c90ed22d6be9991cd3185aae8f06ce686b0a2 AVAX
0xe48f80efe44368629c7ebd40997384ba63f9f8fab7d389866235708f083affd572385642021-11-21 13:20:43221 days 20 hrs ago Wrapped AVAX0xa8e6c90ed22d6be9991cd3185aae8f06ce686b0a5 AVAX
0x29469d76b50e875ddb8744b31f9da8a92ac5700233e57637166679a11836a8a265513012021-11-05 10:19:21237 days 23 hrs ago Wrapped AVAX0xa8e6c90ed22d6be9991cd3185aae8f06ce686b0a308 AVAX
[ Download CSV Export 
Loading

Contract Name:
0

Compiler Version
0

Optimization Enabled:
0

Other Settings:
-NA-
Block Transaction Gas Used Reward
Age Block Fee Address BC Fee Address Voting Power Jailed Incoming
Block Uncle Number Difficulty Gas Used Reward
Loading
Make sure to use the "Vote Down" button for any spammy posts, and the "Vote Up" for interesting conversations.